QPF
0.00 0.00 0.00 0.00 0.00 0.00 0.00 0.01 0.02 0.03 0.02 0.03 0.05 0.05 0.04 0.03 0.01 0.04 0.08 0.11 0.07 0.02 0.01 0.01 0.01 0.02 0.01 0.00 0.00 0.00 0.00 0.00 0.00 0.00 0.00 0.00 0.00 0.00 0.00 0.00 0.00 0.00 0.00 0.00
0.00 0.00 0.00 0.00 0.00 0.00 0.00 0.01 0.02 0.03 0.01 0.02 0.03 0.03 0.03 0.03 0.03 0.03 0.05 0.08 0.07 0.02 0.01 0.00 0.00 0.02 0.02 0.00 0.00 0.00 0.00 0.00 0.00 0.00 0.00 0.00 0.00 0.00 0.00 0.00 0.00 0.00 0.00 0.00
0.00 0.00 0.00 0.00 0.00 0.00 0.00 0.01 0.01 0.02 0.02 0.02 0.02 0.03 0.04 0.03 0.03 0.02 0.03 0.05 0.05 0.01 0.01 0.00 0.00 0.00 0.01 0.00 0.00 0.00 0.00 0.00 0.00 0.00 0.00 0.00 0.00 0.00 0.00 0.00 0.00 0.00 0.00 0.00
0.00 0.00 0.00 0.00 0.00 0.01 0.01 0.01 0.01 0.01 0.02 0.03 0.02 0.03 0.04 0.04 0.02 0.02 0.02 0.03 0.02 0.01 0.01 0.01 0.00 0.00 0.00 0.00 0.00 0.00 0.00 0.00 0.00 0.00 0.00 0.00 0.00 0.00 0.00 0.00 0.00 0.00 0.00 0.00
0.00 0.00 0.00 0.00 0.00 0.00 0.00 0.01 0.01 0.01 0.02 0.02 0.02 0.02 0.02 0.03 0.02 0.01 0.01 0.02 0.01 0.02 0.01 0.01 0.00 0.00 0.00 0.00 0.00 0.00 0.00 0.00 0.00 0.00 0.00 0.00 0.00 0.00 0.00 0.00 0.00 0.00 0.00 0.00
0.00 0.00 0.00 0.00 0.00 0.00 0.00 0.01 0.02 0.02 0.02 0.02 0.01 0.01 0.01 0.01 0.01 0.01 0.01 0.01 0.01 0.01 0.00 0.00 0.00 0.00 0.00 0.00 0.00 0.00 0.00 0.00 0.00 0.00 0.00 0.00 0.00 0.00 0.00 0.00 0.00 0.00 0.00 0.00
0.00 0.00 0.00 0.00 0.00 0.00 0.00 0.01 0.01 0.01 0.01 0.01 0.01 0.01 0.01 0.00 0.00 0.01 0.01 0.01 0.01 0.00 0.01 0.01 0.01 0.00 0.00 0.00 0.00 0.00 0.00 0.00 0.00 0.00 0.00 0.00 0.00 0.00 0.00 0.00 0.00 0.00 0.00 0.00
0.00 0.00 0.00 0.00 0.00 0.01 0.01 0.01 0.01 0.01 0.01 0.00 0.01 0.01 0.00 0.00 0.00 0.00 0.00 0.01 0.01 0.01 0.01 0.01 0.01 0.00 0.00 0.00 0.00 0.00 0.00 0.00 0.00 0.00 0.00 0.00 0.00 0.00 0.00 0.00 0.00 0.00 0.00 0.00
0.00 0.00 0.00 0.00 0.00 0.01 0.01 0.01 0.00 0.00 0.00 0.01 0.01 0.00 0.00 0.00 0.00 0.00 0.00 0.00 0.01 0.00 0.01 0.01 0.00 0.00 0.00 0.00 0.00 0.00 0.00 0.00 0.00 0.00 0.00 0.00 0.00 0.00 0.00 0.00 0.00 0.00 0.00 0.00
0.00 0.00 0.01 0.00 0.00 0.01 0.01 0.01 0.00 0.01 0.01 0.01 0.01 0.01 0.00 0.00 0.00 0.00 0.00 0.00 0.00 0.00 0.00 0.01 0.01 0.00 0.00 0.00 0.00 0.00 0.00 0.00 0.00 0.00 0.00 0.00 0.00 0.00 0.00 0.00 0.00 0.00 0.00 0.00
0.00 0.00 0.01 0.01 0.00 0.00 0.00 0.00 0.00 0.01 0.01 0.01 0.01 0.01 0.00 0.00 0.00 0.00 0.00 0.00 0.00 0.00 0.01 0.01 0.01 0.00 0.00 0.00 0.00 0.00 0.00 0.00 0.00 0.00 0.00 0.00 0.00 0.00 0.00 0.00 0.00 0.00 0.00 0.00
0.00 0.00 0.01 0.01 0.00 0.00 0.00 0.00 0.00 0.01 0.01 0.01 0.01 0.01 0.00 0.00 0.00 0.00 0.00 0.00 0.00 0.00 0.01 0.01 0.01 0.01 0.00 0.00 0.00 0.00 0.00 0.00 0.00 0.00 0.00 0.00 0.00 0.00 0.00 0.00 0.00 0.00 0.00 0.00
0.01 0.01 0.01 0.01 0.01 0.01 0.00 0.00 0.00 0.00 0.01 0.01 0.01 0.01 0.00 0.00 0.00 0.00 0.00 0.00 0.00 0.01 0.01 0.01 0.01 0.00 0.00 0.00 0.00 0.00 0.00 0.00 0.00 0.00 0.00 0.00 0.00 0.00 0.00 0.00 0.00 0.00 0.00 0.00
0.02 0.01 0.01 0.01 0.00 0.01 0.01 0.00 0.00 0.00 0.01 0.00 0.00 0.00 0.00 0.00 0.00 0.00 0.00 0.00 0.00 0.00 0.00 0.01 0.01 0.01 0.01 0.00 0.00 0.00 0.00 0.00 0.00 0.00 0.00 0.00 0.00 0.00 0.00 0.00 0.00 0.00 0.00 0.00
0.02 0.01 0.00 0.00 0.00 0.00 0.00 0.00 0.00 0.00 0.00 0.00 0.00 0.00 0.00 0.00 0.00 0.00 0.01 0.00 0.00 0.00 0.00 0.00 0.01 0.01 0.01 0.01 0.00 0.00 0.00 0.00 0.00 0.00 0.00 0.00 0.00 0.00 0.00 0.00 0.00 0.00 0.00 0.00
0.02 0.01 0.00 0.00 0.00 0.00 0.00 0.00 0.00 0.00 0.00 0.00 0.00 0.01 0.00 0.00 0.00 0.00 0.00 0.00 0.00 0.00 0.00 0.01 0.01 0.02 0.01 0.00 0.00 0.00 0.01 0.01 0.00 0.00 0.00 0.00 0.00 0.00 0.00 0.00 0.00 0.00 0.00 0.00
0.01 0.02 0.01 0.01 0.00 0.00 0.00 0.00 0.00 0.00 0.00 0.00 0.00 0.00 0.00 0.00 0.00 0.01 0.00 0.00 0.00 0.00 0.00 0.00 0.01 0.01 0.01 0.01 0.01 0.01 0.00 0.01 0.01 0.00 0.00 0.00 0.00 0.00 0.00 0.00 0.00 0.00 0.00 0.00
0.01 0.01 0.03 0.02 0.01 0.01 0.00 0.00 0.00 0.00 0.00 0.00 0.00 0.00 0.00 0.00 0.00 0.01 0.01 0.00 0.00 0.00 0.00 0.00 0.00 0.00 0.01 0.01 0.01 0.01 0.01 0.01 0.01 0.00 0.00 0.00 0.00 0.00 0.00 0.00 0.00 0.00 0.00 0.00
0.01 0.01 0.02 0.02 0.02 0.01 0.00 0.00 0.00 0.00 0.00 0.00 0.00 0.00 0.00 0.00 0.01 0.00 0.00 0.00 0.00 0.00 0.00 0.00 0.00 0.01 0.01 0.01 0.01 0.01 0.01 0.01 0.01 0.01 0.00 0.00 0.00 0.00 0.00 0.00 0.00 0.00 0.00 0.00
0.01 0.01 0.02 0.02 0.02 0.01 0.00 0.00 0.00 0.00 0.00 0.00 0.00 0.00 0.00 0.00 0.00 0.00 0.00 0.00 0.00 0.01 0.01 0.00 0.00 0.01 0.01 0.01 0.01 0.01 0.01 0.01 0.01 0.01 0.01 0.01 0.01 0.00 0.00 0.00 0.00 0.00 0.00 0.00
0.01 0.01 0.01 0.01 0.01 0.01 0.00 0.01 0.01 0.00 0.00 0.00 0.00 0.00 0.00 0.00 0.00 0.00 0.00 0.00 0.00 0.00 0.01 0.01 0.01 0.01 0.01 0.02 0.01 0.01 0.01 0.01 0.00 0.00 0.01 0.01 0.00 0.00 0.00 0.00 0.00 0.00 0.00 0.00
0.01 0.01 0.01 0.01 0.01 0.01 0.00 0.00 0.00 0.00 0.00 0.00 0.00 0.00 0.00 0.00 0.00 0.00 0.00 0.00 0.00 0.00 0.01 0.02 0.02 0.02 0.02 0.01 0.02 0.01 0.01 0.01 0.00 0.00 0.01 0.01 0.00 0.00 0.00 0.00 0.00 0.00 0.00 0.00
0.01 0.01 0.01 0.01 0.01 0.00 0.00 0.00 0.00 0.00 0.00 0.00 0.00 0.00 0.00 0.00 0.00 0.00 0.00 0.00 0.00 0.00 0.01 0.01 0.02 0.02 0.02 0.01 0.02 0.02 0.01 0.01 0.01 0.01 0.01 0.01 0.00 0.00 0.00 0.01 0.00 0.00 0.00 0.00
0.01 0.01 0.01 0.01 0.00 0.00 0.00 0.00 0.00 0.00 0.00 0.00 0.00 0.00 0.00 0.00 0.01 0.00 0.00 0.00 0.00 0.00 0.01 0.01 0.01 0.01 0.02 0.02 0.02 0.02 0.02 0.01 0.01 0.01 0.01 0.01 0.00 0.00 0.00 0.01 0.01 0.01 0.01 0.01
0.01 0.01 0.01 0.01 0.00 0.00 0.00 0.00 0.00 0.00 0.00 0.00 0.00 0.00 0.00 0.00 0.01 0.01 0.00 0.00 0.00 0.00 0.00 0.01 0.01 0.01 0.01 0.02 0.01 0.01 0.01 0.01 0.00 0.01 0.01 0.01 0.00 0.00 0.00 0.00 0.00 0.00 0.00 0.00
0.00 0.00 0.00 0.00 0.00 0.00 0.00 0.00 0.00 0.00 0.00 0.00 0.00 0.00 0.00 0.00 0.00 0.01 0.01 0.01 0.00 0.01 0.01 0.01 0.01 0.01 0.01 0.01 0.01 0.01 0.01 0.01 0.01 0.01 0.01 0.01 0.01 0.00 0.00 0.00 0.00 0.00 0.00 0.00
MSLP
1015.44 1015.89 1016.25 1016.50 1016.67 1016.79 1016.89 1016.99 1017.10 1017.20 1017.28 1017.31 1017.27 1017.17 1017.01 1016.81 1016.63 1016.49 1016.42 1016.44 1016.54 1016.69 1016.86 1017.02 1017.15 1017.23 1017.28 1017.30 1017.32 1017.38 1017.50 1017.67 1017.90 1018.15 1018.38 1018.58 1018.70 1018.72 1018.66 1018.51 1018.31 1018.09 1017.87 1017.68
1015.91 1016.30 1016.59 1016.78 1016.89 1016.96 1017.03 1017.12 1017.22 1017.32 1017.38 1017.40 1017.33 1017.18 1016.97 1016.72 1016.49 1016.32 1016.25 1016.30 1016.46 1016.70 1016.98 1017.25 1017.48 1017.64 1017.72 1017.75 1017.76 1017.77 1017.83 1017.95 1018.14 1018.37 1018.60 1018.82 1018.97 1019.04 1019.02 1018.90 1018.71 1018.48 1018.25 1018.03
1016.30 1016.61 1016.81 1016.92 1016.98 1017.02 1017.08 1017.16 1017.27 1017.38 1017.45 1017.44 1017.34 1017.15 1016.87 1016.56 1016.28 1016.08 1016.01 1016.09 1016.32 1016.65 1017.04 1017.42 1017.75 1017.98 1018.12 1018.16 1018.15 1018.12 1018.13 1018.20 1018.34 1018.55 1018.79 1019.03 1019.22 1019.33 1019.35 1019.26 1019.10 1018.88 1018.65 1018.42
1016.58 1016.78 1016.89 1016.93 1016.95 1016.97 1017.04 1017.15 1017.28 1017.41 1017.49 1017.47 1017.34 1017.08 1016.74 1016.36 1016.01 1015.77 1015.69 1015.78 1016.06 1016.47 1016.96 1017.45 1017.88 1018.20 1018.39 1018.46 1018.44 1018.40 1018.36 1018.39 1018.50 1018.69 1018.93 1019.19 1019.41 1019.57 1019.63 1019.59 1019.46 1019.27 1019.04 1018.81
1016.72 1016.82 1016.85 1016.83 1016.82 1016.86 1016.95 1017.10 1017.28 1017.44 1017.53 1017.50 1017.33 1017.01 1016.58 1016.11 1015.68 1015.37 1015.25 1015.34 1015.65 1016.12 1016.70 1017.29 1017.82 1018.23 1018.49 1018.61 1018.62 1018.57 1018.53 1018.53 1018.62 1018.80 1019.05 1019.32 1019.57 1019.77 1019.87 1019.86 1019.77 1019.60 1019.39 1019.17
1016.73 1016.74 1016.70 1016.65 1016.64 1016.70 1016.84 1017.06 1017.29 1017.49 1017.60 1017.55 1017.32 1016.92 1016.40 1015.83 1015.30 1014.90 1014.72 1014.79 1015.10 1015.61 1016.25 1016.93 1017.56 1018.07 1018.41 1018.60 1018.66 1018.65 1018.62 1018.63 1018.72 1018.90 1019.14 1019.42 1019.70 1019.91 1020.04 1020.07 1020.00 1019.86 1019.67 1019.48
1016.61 1016.56 1016.48 1016.43 1016.44 1016.55 1016.76 1017.03 1017.33 1017.56 1017.67 1017.60 1017.32 1016.84 1016.22 1015.53 1014.89 1014.40 1014.14 1014.15 1014.44 1014.97 1015.66 1016.41 1017.12 1017.73 1018.17 1018.45 1018.59 1018.64 1018.66 1018.70 1018.80 1018.99 1019.24 1019.52 1019.80 1020.02 1020.16 1020.20 1020.15 1020.03 1019.88 1019.71
1016.40 1016.32 1016.24 1016.21 1016.27 1016.43 1016.71 1017.04 1017.38 1017.65 1017.76 1017.66 1017.32 1016.76 1016.04 1015.25 1014.51 1013.92 1013.57 1013.52 1013.77 1014.28 1014.99 1015.79 1016.57 1017.27 1017.81 1018.20 1018.43 1018.57 1018.65 1018.74 1018.88 1019.08 1019.33 1019.61 1019.88 1020.10 1020.24 1020.29 1020.25 1020.15 1020.01 1019.88
1016.14 1016.07 1016.01 1016.03 1016.14 1016.37 1016.70 1017.08 1017.44 1017.71 1017.81 1017.68 1017.29 1016.67 1015.88 1015.01 1014.18 1013.51 1013.08 1012.96 1013.16 1013.64 1014.34 1015.16 1015.99 1016.75 1017.39 1017.87 1018.21 1018.44 1018.61 1018.77 1018.95 1019.18 1019.44 1019.71 1019.97 1020.17 1020.30 1020.34 1020.31 1020.22 1020.12 1020.02
1015.87 1015.84 1015.84 1015.91 1016.08 1016.35 1016.71 1017.11 1017.48 1017.73 1017.81 1017.64 1017.22 1016.56 1015.73 1014.81 1013.93 1013.21 1012.72 1012.54 1012.69 1013.12 1013.79 1014.59 1015.43 1016.24 1016.94 1017.51 1017.94 1018.27 1018.53 1018.76 1019.00 1019.26 1019.54 1019.81 1020.06 1020.25 1020.36 1020.40 1020.38 1020.30 1020.22 1020.16
1015.62 1015.65 1015.72 1015.85 1016.07 1016.37 1016.73 1017.11 1017.44 1017.66 1017.69 1017.49 1017.05 1016.38 1015.55 1014.64 1013.77 1013.03 1012.52 1012.30 1012.39 1012.76 1013.37 1014.13 1014.95 1015.76 1016.49 1017.11 1017.62 1018.04 1018.38 1018.69 1019.00 1019.30 1019.60 1019.89 1020.14 1020.33 1020.45 1020.49 1020.48 1020.43 1020.38 1020.35
1015.40 1015.52 1015.66 1015.84 1016.08 1016.38 1016.70 1017.03 1017.30 1017.45 1017.43 1017.20 1016.75 1016.11 1015.32 1014.47 1013.64 1012.94 1012.44 1012.21 1012.25 1012.56 1013.09 1013.78 1014.54 1015.32 1016.04 1016.69 1017.25 1017.74 1018.16 1018.55 1018.92 1019.27 1019.62 1019.93 1020.20 1020.41 1020.54 1020.61 1020.62 1020.61 1020.59 1020.59
1015.23 1015.43 1015.63 1015.86 1016.10 1016.36 1016.62 1016.85 1017.01 1017.07 1016.99 1016.73 1016.29 1015.70 1014.99 1014.23 1013.50 1012.87 1012.43 1012.20 1012.21 1012.46 1012.91 1013.51 1014.19 1014.90 1015.59 1016.23 1016.82 1017.35 1017.84 1018.30 1018.74 1019.16 1019.55 1019.91 1020.22 1020.47 1020.64 1020.75 1020.80 1020.83 1020.85 1020.89
1015.08 1015.36 1015.63 1015.87 1016.09 1016.28 1016.44 1016.55 1016.58 1016.53 1016.36 1016.07 1015.64 1015.12 1014.51 1013.87 1013.27 1012.76 1012.39 1012.19 1012.20 1012.39 1012.76 1013.26 1013.84 1014.47 1015.11 1015.73 1016.33 1016.89 1017.43 1017.96 1018.46 1018.94 1019.40 1019.82 1020.18 1020.48 1020.71 1020.87 1020.99 1021.07 1021.14 1021.22
1014.96 1015.31 1015.61 1015.85 1016.03 1016.13 1016.16 1016.12 1016.01 1015.82 1015.56 1015.22 1014.81 1014.35 1013.86 1013.36 1012.90 1012.52 1012.25 1012.11 1012.12 1012.28 1012.58 1012.98 1013.48 1014.02 1014.60 1015.20 1015.79 1016.38 1016.96 1017.54 1018.11 1018.65 1019.17 1019.64 1020.07 1020.43 1020.72 1020.95 1021.13 1021.28 1021.41 1021.53
1014.85 1015.24 1015.57 1015.79 1015.90 1015.90 1015.79 1015.59 1015.32 1014.99 1014.62 1014.23 1013.83 1013.43 1013.04 1012.68 1012.37 1012.12 1011.96 1011.89 1011.93 1012.08 1012.32 1012.66 1013.08 1013.56 1014.09 1014.66 1015.25 1015.86 1016.48 1017.10 1017.72 1018.31 1018.88 1019.41 1019.88 1020.30 1020.65 1020.95 1021.20 1021.42 1021.60 1021.77
1014.72 1015.14 1015.47 1015.66 1015.70 1015.58 1015.33 1014.97 1014.54 1014.07 1013.60 1013.14 1012.74 1012.38 1012.08 1011.85 1011.67 1011.56 1011.51 1011.53 1011.61 1011.77 1012.00 1012.30 1012.67 1013.11 1013.61 1014.16 1014.76 1015.38 1016.03 1016.69 1017.34 1017.97 1018.57 1019.13 1019.64 1020.10 1020.51 1020.86 1021.18 1021.45 1021.70 1021.91
1014.57 1014.99 1015.29 1015.43 1015.39 1015.17 1014.78 1014.28 1013.70 1013.10 1012.53 1012.02 1011.60 1011.27 1011.05 1010.92 1010.86 1010.87 1010.94 1011.04 1011.19 1011.38 1011.63 1011.93 1012.29 1012.71 1013.21 1013.76 1014.37 1015.01 1015.68 1016.36 1017.03 1017.68 1018.29 1018.86 1019.38 1019.86 1020.29 1020.69 1021.06 1021.39 1021.69 1021.96
1014.35 1014.74 1015.00 1015.08 1014.96 1014.64 1014.15 1013.52 1012.83 1012.13 1011.48 1010.92 1010.48 1010.18 1010.02 1009.97 1010.02 1010.13 1010.30 1010.50 1010.72 1010.97 1011.25 1011.57 1011.95 1012.40 1012.91 1013.48 1014.11 1014.77 1015.46 1016.15 1016.82 1017.46 1018.06 1018.62 1019.13 1019.61 1020.05 1020.48 1020.88 1021.26 1021.61 1021.94
1014.06 1014.38 1014.57 1014.57 1014.37 1013.97 1013.40 1012.70 1011.93 1011.16 1010.46 1009.88 1009.44 1009.17 1009.05 1009.07 1009.20 1009.41 1009.67 1009.95 1010.25 1010.57 1010.90 1011.28 1011.70 1012.18 1012.72 1013.32 1013.98 1014.67 1015.37 1016.06 1016.72 1017.35 1017.92 1018.45 1018.94 1019.40 1019.84 1020.26 1020.69 1021.11 1021.51 1021.89
1013.65 1013.87 1013.96 1013.88 1013.62 1013.16 1012.54 1011.80 1011.00 1010.21 1009.51 1008.92 1008.50 1008.26 1008.19 1008.27 1008.48 1008.76 1009.10 1009.46 1009.83 1010.21 1010.61 1011.04 1011.51 1012.04 1012.62 1013.26 1013.94 1014.65 1015.36 1016.06 1016.71 1017.31 1017.86 1018.36 1018.82 1019.25 1019.68 1020.11 1020.55 1021.00 1021.45 1021.88
1013.09 1013.18 1013.17 1013.01 1012.68 1012.19 1011.56 1010.83 1010.05 1009.29 1008.61 1008.07 1007.69 1007.49 1007.47 1007.60 1007.86 1008.21 1008.61 1009.03 1009.47 1009.91 1010.37 1010.85 1011.37 1011.94 1012.56 1013.23 1013.94 1014.67 1015.40 1016.09 1016.74 1017.33 1017.86 1018.34 1018.78 1019.20 1019.62 1020.05 1020.50 1020.97 1021.46 1021.94
1012.39 1012.33 1012.20 1011.96 1011.59 1011.10 1010.49 1009.80 1009.08 1008.39 1007.78 1007.30 1006.99 1006.84 1006.87 1007.05 1007.36 1007.75 1008.19 1008.67 1009.15 1009.63 1010.13 1010.65 1011.21 1011.81 1012.47 1013.17 1013.90 1014.65 1015.39 1016.10 1016.76 1017.36 1017.89 1018.37 1018.81 1019.23 1019.65 1020.10 1020.57 1021.06 1021.57 1022.09
1011.55 1011.35 1011.11 1010.80 1010.42 1009.94 1009.38 1008.77 1008.15 1007.55 1007.04 1006.64 1006.40 1006.31 1006.39 1006.61 1006.94 1007.36 1007.83 1008.33 1008.83 1009.35 1009.87 1010.41 1010.99 1011.61 1012.29 1013.01 1013.76 1014.53 1015.30 1016.04 1016.72 1017.35 1017.92 1018.42 1018.89 1019.34 1019.79 1020.25 1020.74 1021.25 1021.79 1022.33
1010.63 1010.30 1009.97 1009.62 1009.24 1008.81 1008.33 1007.82 1007.30 1006.82 1006.40 1006.10 1005.92 1005.89 1006.00 1006.24 1006.59 1007.02 1007.49 1007.99 1008.50 1009.01 1009.54 1010.09 1010.67 1011.30 1011.98 1012.71 1013.49 1014.28 1015.08 1015.86 1016.60 1017.28 1017.90 1018.47 1018.99 1019.49 1019.98 1020.47 1020.98 1021.52 1022.07 1022.61
1009.70 1009.28 1008.90 1008.54 1008.19 1007.82 1007.43 1007.02 1006.62 1006.24 1005.92 1005.69 1005.57 1005.57 1005.70 1005.94 1006.28 1006.69 1007.14 1007.62 1008.12 1008.62 1009.13 1009.67 1010.24 1010.87 1011.55 1012.29 1013.07 1013.90 1014.74 1015.57 1016.37 1017.12 1017.82 1018.47 1019.06 1019.63 1020.17 1020.71 1021.25 1021.80 1022.35 1022.90
Thickness
5732 5728 5723 5726 5729 5728 5726 5721 5716 5718 5724 5721 5719 5721 5725 5727 5727 5727 5728 5729 5730 5731 5734 5735 5733 5733 5733 5733 5734 5734 5733 5732 5731 5730 5730 5728 5726 5725 5724 5721 5719 5718 5718 5717
5722 5718 5725 5727 5725 5723 5721 5716 5714 5715 5720 5719 5717 5719 5726 5727 5727 5729 5729 5730 5731 5730 5730 5730 5731 5732 5732 5732 5733 5734 5733 5732 5731 5730 5730 5728 5725 5725 5722 5719 5718 5718 5717 5716
5716 5719 5723 5720 5717 5715 5715 5714 5712 5710 5713 5717 5714 5712 5719 5725 5729 5730 5731 5733 5734 5731 5730 5730 5730 5730 5730 5730 5732 5733 5733 5731 5730 5728 5728 5726 5724 5723 5721 5719 5717 5716 5715 5714
5714 5717 5716 5714 5713 5714 5707 5715 5714 5709 5707 5705 5708 5701 5717 5724 5723 5725 5728 5731 5733 5733 5733 5731 5730 5729 5730 5731 5733 5734 5732 5731 5730 5728 5727 5726 5722 5721 5719 5719 5717 5716 5714 5713
5707 5712 5711 5708 5711 5713 5711 5714 5712 5709 5706 5703 5707 5702 5716 5722 5719 5725 5731 5733 5734 5734 5734 5732 5731 5731 5731 5731 5731 5731 5731 5730 5728 5728 5725 5724 5723 5721 5721 5719 5717 5717 5714 5713
5708 5713 5713 5712 5713 5713 5710 5708 5706 5705 5702 5692 5705 5701 5708 5722 5725 5730 5734 5736 5736 5735 5734 5733 5732 5731 5730 5730 5728 5728 5728 5727 5726 5725 5726 5725 5722 5721 5719 5718 5717 5716 5715 5713
5697 5703 5709 5712 5704 5705 5707 5699 5688 5686 5685 5692 5706 5700 5711 5730 5734 5735 5736 5739 5739 5738 5735 5733 5730 5729 5729 5728 5728 5728 5727 5726 5726 5726 5726 5725 5724 5723 5721 5719 5717 5716 5715 5714
5689 5688 5702 5707 5706 5702 5703 5702 5688 5680 5683 5694 5699 5699 5719 5733 5737 5739 5741 5742 5742 5739 5738 5735 5734 5732 5731 5729 5728 5728 5727 5726 5726 5726 5726 5727 5725 5723 5722 5720 5719 5717 5716 5714
5693 5691 5702 5705 5708 5706 5697 5699 5705 5695 5691 5688 5700 5710 5722 5732 5733 5735 5738 5739 5740 5740 5738 5736 5736 5734 5733 5731 5729 5729 5728 5727 5726 5726 5726 5726 5725 5723 5721 5720 5719 5717 5716 5714
5701 5690 5695 5698 5701 5699 5703 5703 5695 5688 5678 5679 5693 5702 5711 5722 5726 5730 5733 5735 5738 5739 5738 5737 5736 5735 5735 5733 5731 5730 5730 5729 5727 5726 5726 5725 5724 5723 5720 5720 5718 5717 5716 5714
5701 5691 5687 5691 5691 5692 5691 5692 5694 5693 5691 5681 5682 5699 5723 5724 5728 5730 5733 5737 5738 5738 5738 5737 5737 5737 5736 5733 5731 5729 5729 5728 5727 5726 5726 5724 5723 5721 5720 5718 5717 5716 5715 5714
5697 5694 5686 5690 5698 5702 5700 5698 5695 5684 5685 5688 5687 5700 5730 5729 5731 5732 5734 5737 5739 5739 5739 5737 5736 5736 5734 5733 5731 5730 5730 5728 5727 5727 5726 5724 5722 5721 5720 5718 5716 5716 5716 5714
5692 5687 5676 5674 5681 5688 5691 5695 5696 5696 5692 5688 5685 5699 5727 5728 5729 5731 5733 5735 5737 5737 5737 5736 5735 5734 5734 5732 5732 5730 5730 5729 5727 5725 5725 5723 5722 5721 5720 5718 5716 5716 5715 5713
5695 5688 5683 5677 5685 5691 5687 5689 5692 5692 5686 5689 5695 5703 5718 5722 5724 5728 5731 5734 5736 5736 5736 5735 5734 5734 5734 5733 5732 5731 5730 5729 5726 5724 5723 5722 5721 5720 5719 5718 5716 5715 5714 5712
5689 5684 5688 5691 5692 5692 5691 5691 5691 5691 5696 5694 5702 5706 5716 5723 5725 5728 5730 5732 5733 5734 5734 5735 5734 5734 5733 5732 5732 5732 5730 5727 5726 5723 5722 5721 5721 5720 5718 5716 5714 5713 5712 5710
5686 5682 5685 5683 5688 5688 5687 5693 5695 5695 5698 5699 5702 5707 5724 5728 5729 5728 5730 5730 5731 5734 5735 5736 5736 5736 5735 5734 5732 5731 5729 5727 5725 5723 5721 5720 5719 5717 5715 5714 5713 5711 5710 5709
5680 5679 5676 5676 5684 5681 5679 5696 5697 5697 5702 5702 5700 5713 5724 5721 5722 5725 5729 5730 5732 5735 5736 5737 5737 5738 5738 5737 5736 5733 5731 5728 5725 5723 5721 5719 5718 5715 5714 5712 5710 5708 5707 5706
5679 5676 5674 5673 5672 5662 5695 5712 5707 5701 5704 5710 5712 5717 5721 5721 5724 5729 5732 5732 5734 5737 5738 5739 5739 5739 5739 5739 5737 5735 5732 5728 5726 5724 5721 5719 5717 5714 5712 5710 5708 5707 5706 5703
5681 5674 5668 5668 5666 5676 5695 5704 5702 5698 5702 5715 5714 5717 5720 5724 5723 5729 5736 5737 5738 5740 5742 5742 5742 5741 5739 5738 5737 5734 5730 5728 5726 5723 5721 5719 5717 5713 5711 5709 5708 5707 5704 5702
5673 5675 5669 5665 5660 5665 5692 5707 5710 5702 5696 5718 5718 5718 5719 5718 5711 5723 5734 5736 5737 5739 5741 5742 5742 5740 5737 5737 5736 5732 5730 5727 5725 5724 5722 5720 5718 5714 5711 5709 5708 5705 5703 5700
5660 5662 5663 5664 5664 5679 5702 5704 5701 5685 5698 5716 5719 5719 5719 5717 5721 5728 5732 5733 5734 5735 5737 5738 5738 5737 5735 5735 5733 5730 5729 5727 5727 5724 5721 5718 5716 5714 5711 5708 5705 5703 5700 5698
5665 5663 5665 5667 5663 5675 5702 5698 5695 5703 5715 5716 5717 5719 5719 5720 5722 5724 5726 5727 5729 5731 5732 5733 5733 5732 5732 5731 5730 5730 5729 5729 5726 5722 5718 5715 5713 5711 5708 5705 5702 5700 5697 5694
5671 5677 5679 5680 5683 5698 5701 5702 5706 5710 5710 5713 5715 5717 5717 5716 5718 5719 5721 5723 5725 5727 5728 5729 5729 5728 5728 5728 5729 5728 5727 5726 5722 5718 5714 5712 5710 5708 5706 5702 5699 5697 5694 5693
5671 5676 5675 5677 5686 5693 5696 5700 5703 5706 5708 5711 5713 5714 5715 5714 5716 5716 5717 5719 5721 5723 5724 5725 5725 5724 5724 5726 5726 5726 5725 5722 5718 5715 5712 5709 5707 5704 5702 5699 5698 5695 5693 5691
5668 5668 5671 5675 5684 5688 5691 5695 5699 5702 5705 5707 5710 5712 5712 5712 5712 5713 5714 5715 5717 5719 5720 5721 5722 5721 5722 5722 5723 5723 5721 5718 5715 5712 5709 5707 5704 5702 5699 5696 5694 5693 5692 5692
5666 5668 5668 5673 5683 5685 5688 5694 5696 5697 5698 5702 5704 5706 5708 5709 5708 5709 5710 5711 5713 5715 5717 5717 5718 5718 5719 5719 5718 5718 5717 5715 5713 5709 5706 5703 5700 5697 5695 5691 5687 5683 5684 5682